Date String (YYYY-MM-DD hh:mm:ss) UTC,Instrument flags,absolute air pressure of the measurement (hPa),sample flow rate (lpm),inlet stack bypass flow (lpm),air temperature of the measurement (°C),ambient temperature measured by the external sensor (°C),aerosol sample conditioner tube jacket temperature (°C),OPC LED temperature (°C),internal box temperature (°C),relative humidity of the measurement (%),span deviation,mass concentration of particles derived from Lorenz-Mie calculation of OPC scattering (μg/m³),mass concentration of particles derived from Lorenz-Mie calculation of OPC scattering (μg/m³),mass concentration of particles derived from Lorenz-Mie calculation of OPC scattering (μg/m³)
DateTimeUTC,F1_M11,P_M11,Q1_M11,Q2_M11,T1_M11,T2_M11,T3_M11,T4_M11,T5_M11,U1_M11,ZSPAN_M11,X0_M11,X2_M11,X1_M11
2024-04-10 11:00:00,SystemResetWarning,0829.2,5.00,000.00,024.7,024.0,000.0,033.3,026.6,014.9,0000.0,0003.08,0001.52,0000.73
2024-04-10 11:01:00,SystemResetWarning,0829.3,5.00,000.00,024.7,024.0,000.0,033.3,026.6,014.8,0000.0,0003.05,0001.49,0000.72
2024-04-10 11:02:00,SystemResetWarning,0829.2,5.00,000.00,024.7,024.0,000.0,033.3,026.6,014.8,0000.0,0003.12,0001.48,0000.70
2024-04-10 11:03:00,SystemResetWarning,0829.2,5.00,000.00,024.7,024.0,000.0,033.3,026.6,014.8,0000.0,0003.11,0001.47,0000.67
2024-04-10 11:04:00,SystemResetWarning,0829.2,5.00,000.00,024.7,024.0,000.0,033.3,026.6,014.8,0000.0,0003.15,0001.39,0000.65
2024-04-10 11:05:00,SystemResetWarning,0829.2,4.99,000.00,024.7,024.0,000.0,033.3,026.6,014.7,0000.0,0002.96,0001.31,0000.63
2024-04-10 11:06:00,SystemResetWarning,0829.2,4.99,000.00,024.7,024.0,000.0,033.3,026.6,014.6,0000.0,0003.01,0001.31,0000.62
2024-04-10 11:07:00,SystemResetWarning,0829.3,5.01,000.00,024.7,024.0,000.0,033.3,026.6,014.6,0000.0,0002.97,0001.28,0000.62
2024-04-10 11:08:00,SystemResetWarning,0829.3,5.01,000.00,024.7,024.0,000.0,033.3,026.6,014.6,0000.0,0002.91,0001.25,0000.61
2024-04-10 11:09:00,SystemResetWarning,0829.3,5.01,000.00,024.7,024.0,000.0,033.3,026.6,014.6,0000.0,0002.97,0001.26,0000.61
2024-04-10 11:10:00,SystemResetWarning,0829.4,5.00,000.00,024.7,024.0,000.0,033.3,026.6,014.6,0000.0,0002.96,0001.24,0000.60
2024-04-10 11:11:00,SystemResetWarning,0829.3,5.00,000.00,024.7,024.0,000.0,033.3,026.6,014.6,0000.0,0003.01,0001.19,0000.58
2024-04-10 11:12:00,SystemResetWarning,0829.4,5.00,000.00,024.7,024.0,000.0,033.3,026.6,014.6,0000.0,0002.99,0001.17,0000.57
2024-04-10 11:13:00,SystemResetWarning,0829.3,4.99,000.00,024.7,024.0,000.0,033.3,026.6,014.5,0000.0,0002.87,0001.16,0000.56
2024-04-10 11:14:00,SystemResetWarning,0829.3,5.00,000.00,024.7,024.0,000.0,033.3,026.6,014.5,0000.0,0003.59,0001.12,0000.56
2024-04-10 11:15:00,SystemResetWarning,0829.3,5.01,000.00,024.7,024.0,000.0,033.3,026.6,014.4,0000.0,0003.57,0001.08,0000.54
2024-04-10 11:16:00,SystemResetWarning,0829.3,5.01,000.00,024.7,024.0,000.0,033.3,026.6,014.2,0000.0,0003.66,0001.10,0000.54
2024-04-10 11:17:00,SystemResetWarning,0829.4,5.00,000.00,024.7,024.0,000.0,033.3,026.6,014.2,0000.0,0003.47,0001.05,0000.55
2024-04-10 11:18:00,SystemResetWarning,0829.3,5.00,000.00,024.7,024.0,000.0,033.3,026.6,014.2,0000.0,0003.34,0001.02,0000.55
2024-04-10 11:19:00,SystemResetWarning,0829.3,4.99,000.00,024.7,024.0,000.0,033.3,026.6,014.2,0000.0,0003.38,0001.04,0000.56
2024-04-10 11:20:00,SystemResetWarning,0829.3,4.99,000.00,024.7,024.0,000.0,033.3,026.6,014.3,0000.0,0003.40,0001.02,0000.58
2024-04-10 11:21:00,SystemResetWarning,0829.3,5.00,000.00,024.7,024.0,000.0,033.3,026.6,014.4,0000.0,0003.49,0001.04,0000.58
2024-04-10 11:22:00,SystemResetWarning,0829.3,5.01,000.00,024.7,023.9,000.0,033.3,026.6,014.4,0000.0,0003.31,0001.03,0000.58
2024-04-10 11:23:00,SystemResetWarning,0829.3,5.01,000.00,024.7,023.9,000.0,033.3,026.6,014.4,0000.0,0003.33,0001.09,0000.60
2024-04-10 11:24:00,SystemResetWarning,0829.3,5.00,000.00,024.7,023.9,000.0,033.3,026.6,014.4,0000.0,0003.42,0001.15,0000.61
2024-04-10 11:25:00,SystemResetWarning,0829.3,5.00,000.00,024.7,023.9,000.0,033.3,026.6,014.4,0000.0,0002.86,0001.21,0000.61
2024-04-10 11:26:00,SystemResetWarning,0829.3,5.00,000.00,024.7,023.9,000.0,033.3,026.5,014.4,0000.0,0002.77,0001.26,0000.62
2024-04-10 11:27:00,SystemResetWarning,0829.3,4.99,000.00,024.7,023.9,000.0,033.3,026.6,014.4,0000.0,0002.74,0001.29,0000.63
2024-04-10 11:28:00,SystemResetWarning,0829.3,4.99,000.00,024.7,023.9,000.0,033.2,026.5,014.3,0000.0,0002.91,0001.35,0000.63
2024-04-10 11:29:00,SystemResetWarning,0829.3,5.00,000.00,024.7,023.9,000.0,033.2,026.5,014.3,0000.0,0003.01,0001.39,0000.63
2024-04-10 11:30:00,SystemResetWarning,0829.3,5.01,000.00,024.6,023.9,000.0,033.2,026.5,014.2,0000.0,0003.05,0001.39,0000.62
2024-04-10 11:31:00,SystemResetWarning,0829.3,5.00,000.00,024.6,023.9,000.0,033.2,026.5,014.2,0000.0,0004.14,0001.42,0000.63
2024-04-10 11:32:00,SystemResetWarning,0829.4,5.01,000.00,024.6,023.9,000.0,033.2,026.5,014.2,0000.0,0004.54,0001.41,0000.64
2024-04-10 11:33:00,SystemResetWarning,0829.4,5.01,000.00,024.6,023.9,000.0,033.2,026.5,014.1,0000.0,0005.03,0001.42,0000.64
2024-04-10 11:34:00,SystemResetWarning,0829.4,4.99,000.00,024.6,023.9,000.0,033.2,026.5,014.1,0000.0,0005.50,0001.38,0000.64
2024-04-10 11:35:00,SystemResetWarning,0829.4,4.99,000.00,024.6,023.9,000.0,033.2,026.5,014.1,0000.0,0005.68,0001.36,0000.63
2024-04-10 11:36:00,SystemResetWarning,0829.4,5.02,000.00,024.6,023.9,000.0,033.2,026.5,014.2,0000.0,0005.69,0001.38,0000.63
2024-04-10 11:37:00,SystemResetWarning,0829.4,5.01,000.00,024.6,023.9,000.0,033.2,026.5,014.2,0000.0,0005.51,0001.35,0000.63
2024-04-10 11:38:00,SystemResetWarning,0829.4,5.00,000.00,024.6,023.9,000.0,033.2,026.5,014.2,0000.0,0005.51,0001.33,0000.64
2024-04-10 11:39:00,SystemResetWarning,0829.4,4.99,000.00,024.6,023.9,000.0,033.2,026.5,014.3,0000.0,0005.69,0001.33,0000.64
2024-04-10 11:40:00,SystemResetWarning,0829.3,5.00,000.00,024.6,023.9,000.0,033.2,026.5,014.2,0000.0,0006.34,0001.35,0000.64
2024-04-10 11:41:00,SystemResetWarning,0829.3,5.00,000.00,024.6,023.9,000.0,033.2,026.5,014.1,0000.0,0006.32,0001.35,0000.65
2024-04-10 11:42:00,SystemResetWarning,0829.4,5.00,000.00,024.6,023.9,000.0,033.2,026.5,014.0,0000.0,0006.03,0001.36,0000.65
2024-04-10 11:43:00,SystemResetWarning,0829.4,5.01,000.00,024.6,023.9,000.0,033.2,026.5,014.0,0000.0,0005.00,0001.40,0000.65
2024-04-10 11:44:00,SystemResetWarning,0829.4,5.01,000.00,024.6,023.9,000.0,033.2,026.5,014.1,0000.0,0006.13,0001.41,0000.65
2024-04-10 11:45:00,SystemResetWarning,0829.5,5.00,000.00,024.6,023.8,000.0,033.2,026.5,014.1,0000.0,0006.49,0001.42,0000.65
2024-04-10 11:46:00,SystemResetWarning,0829.4,4.99,000.00,024.6,023.9,000.0,033.2,026.5,014.1,0000.0,0006.09,0001.48,0000.66
2024-04-10 11:47:00,SystemResetWarning,0829.5,5.00,000.00,024.6,023.9,000.0,033.2,026.5,014.3,0000.0,0006.17,0001.45,0000.66
2024-04-10 11:48:00,SystemResetWarning,0829.5,4.99,000.00,024.6,023.8,000.0,033.2,026.4,014.3,0000.0,0006.19,0001.47,0000.66
2024-04-10 11:49:00,SystemResetWarning,0829.6,4.99,000.00,024.6,023.8,000.0,033.1,026.4,014.3,0000.0,0006.09,0001.43,0000.65
2024-04-10 11:50:00,SystemResetWarning,0829.6,4.99,000.00,024.6,023.8,000.0,033.1,026.4,014.3,0000.0,0006.18,0001.47,0000.65
2024-04-10 11:51:00,SystemResetWarning,0829.6,5.00,000.00,024.6,023.8,000.0,033.1,026.4,014.2,0000.0,0005.64,0001.50,0000.66
2024-04-10 11:52:00,SystemResetWarning,0829.6,5.00,000.00,024.5,023.8,000.0,033.1,026.4,014.1,0000.0,0005.54,0001.50,0000.68
2024-04-10 11:53:00,SystemResetWarning,0829.6,5.01,000.00,024.5,023.8,000.0,033.1,026.4,014.1,0000.0,0005.52,0001.50,0000.70
2024-04-10 11:54:00,SystemResetWarning,0829.6,5.00,000.00,024.5,023.8,000.0,033.1,026.4,014.1,0000.0,0005.49,0001.48,0000.72
2024-04-10 11:55:00,SystemResetWarning,0829.6,5.00,000.00,024.5,023.8,000.0,033.1,026.4,014.1,0000.0,0004.97,0001.49,0000.74
2024-04-10 11:56:00,SystemResetWarning,0829.6,5.00,000.00,024.5,023.7,000.0,033.1,026.4,014.1,0000.0,0004.59,0001.50,0000.75
2024-04-10 11:57:00,SystemResetWarning,0829.6,5.00,000.00,024.5,023.7,000.0,033.1,026.4,014.1,0000.0,0004.42,0001.44,0000.76
2024-04-10 11:58:00,SystemResetWarning,0829.6,5.00,000.00,024.5,023.7,000.0,033.1,026.4,014.1,0000.0,0004.46,0001.47,0000.79
2024-04-10 11:59:00,SystemResetWarning,0829.7,4.99,000.00,024.5,023.7,000.0,033.1,026.3,014.1,0000.0,0004.64,0001.54,0000.81
